Location: Guferjoch
(46.7462°N, 8.4506°E)
Time: 00:31:01
(UTC+00:00)

SL-08 R/B - Pass Details

Date: 14 July 2020
Orbit: 943 x 1009 km, 83.0° (Epoch: 03 August)

Event Time Altitude Azimuth Distance (km) Brightness Sun altitude
Exits shadow 01:28:13 24° 188° (S) 1,919 5.5 -16.8°
Maximum altitude 01:32:16 89° 275° (W) 975 4.5 -16.4°
Drops below altitude 10° 01:38:27 10° 8° (N) 2,698 7.9 -15.9°
Sets 01:40:57 0° 9° (N) 3,640 8.8 -15.7°
